Regional Weather Roundup
Issued by NWS

Home | Current Version | Previous Version | Text Only | Print | Product List | Glossary Off
Versions: 1 2 3 4 5 6 7 8 9 10 11 12 13 14 15 16 17 18 19 20 21 22 23 24 25 26 27 28 29 30 31 32 33 34 35 36 37 38 39 40 41 42 43 44 45 46 47 48 49 50

808
ASUS45 KTFX 081010
RWRMT
MONTANA REGIONAL WEATHER ROUNDUP
NATIONAL WEATHER SERVICE GREAT FALLS MT
300 AM MST THU DEC 08 2016

NOTE: "FAIR" INDICATES FEW OR NO CLOUDS BELOW 12000 FEET WITH NO
SIGNIFICANT WEATHER AND/OR OBSTRUCTIONS TO VISIBILITY.

MTZ001>007-043-081100-
WEST OF THE DIVIDE

CITY           SKY/WX    TMP DP  RH WIND       PRES   REMARKS
KALISPELL      CLEAR      2  -4  76 NW5       30.47R
MISSOULA       CLOUDY    11   2  67 E10       30.43S WCI  -3
BUTTE          CLEAR     -1  -8  72 SE5       30.26S
MULLAN PASS    CLOUDY    -1  -4  87 SE7       30.12F FOG     WCI -14
ANACONDA         N/A     -4 -11  71 SW7       30.29S WCI -18
DEER LODGE       N/A      0  -6  78 CALM      30.34R
EUREKA           N/A     -2  -6  84 E5        30.54S
HAMILTON         N/A     10   7  85 CALM      30.38S
LIBBY            N/A     10   7  85 CALM      30.48S
PLAINS           N/A     14   5  67 CALM      30.44F
RONAN            N/A     12   6  77 CALM      30.41R
$$

MTZ008-052>055-081100-
SOUTHWEST MONTANA

CITY           SKY/WX    TMP DP  RH WIND       PRES   REMARKS
BOZEMAN        CLOUDY     4   0  83 CALM      30.38S
DILLON         CLOUDY    -4 -10  75 S6        30.30S WCI -16
W YELLOWSTONE  CLOUDY   -13 -18  77 CALM      30.24S
ENNIS          CLEAR     -2  -8  78 SE6       30.33F WCI -14
THREE FORKS      N/A     -4 -64   4 CALM      30.34S
TWIN BRIDGES     N/A     -1 -11  63 N3        30.27F
$$

MTZ009-010-012-014-046-048-049-054-081100-
EAST SLOPES AND CENTRAL MONTANA

CITY           SKY/WX    TMP DP  RH WIND       PRES   REMARKS
CUT BANK       PTCLDY   -16 -20  82 NW7       30.49S WCI -32
GREAT FALLS    CLOUDY    -2  -8  76 E8        30.50S WCI -17
MALMSTROM AFB  CLOUDY    -3  -7  83 NE8       30.53F WCI -18
HELENA         CLOUDY     1  -6  72 W6        30.44S WCI -10
AUGUSTA        FLURRIES  -6  -9  84 NE5       30.41S
BOWMANS CRNR   FLURRIES  -4  -8  86 NE7       30.40S WCI -18
CHOTEAU          N/A     -4  -8  84 MISG      30.49S
CONRAD           N/A     -6 -11  79 W3        30.46S
POWER          CLOUDY    -5 -10  79 N6        30.49S WCI -18
RAYNESFORD     CLOUDY    -4 -10  76 S2        30.46S
ULM            FLURRIES  -2  -6  82 NE7       30.50F WCI -15
$$

MTZ011-013-016-021-045-047-050-051-081100-
NORTH CENTRAL MONTANA

CITY           SKY/WX    TMP DP  RH WIND       PRES   REMARKS
HAVRE          CLOUDY   -10 -16  74 CALM      30.65S
LEWISTOWN      CLOUDY    -9 -14  78 SE5       30.45S
N BAR RANCH    CLOUDY    -9 -18  64 CALM      30.44S
CHINOOK          N/A     -9 -15  77 CALM      30.68S
DENTON           N/A    -11 -14  85 SW8G17    30.49S WCI -27
GEYSER         CLOUDY    -4  -9  81 E2        30.46S
GRASS RANGE      N/A     -6 -12  78 S5        30.46R
JUDITH GAP     CLOUDY    -1  -6  78 S10       30.38S WCI -18
ROY              N/A     -8 -13  79 MISG      30.50S
STANFORD       CLOUDY    -6 -10  82 NE6       30.42S WCI -19
WINIFRED         N/A     -8 -12  80 MISG      30.50S
$$

MTZ017>020-022>027-061-062-081100-
NORTHEAST MONTANA

CITY           SKY/WX    TMP DP  RH WIND       PRES   REMARKS
GLASGOW        CLOUDY    -2  -8  76 NW20      30.65R WCI -24
JORDAN           N/A     -9 -14  78 NW5       30.62S
SIDNEY         PTCLDY    -9 -14  78 CALM      30.65S
WOLF POINT     CLOUDY    -2  -9  72 W10       30.68S WCI -19
PLENTYWOOD       N/A     -2  -8  78 W15       30.58S WCI -22
POPLAR           N/A      0  -8  71 W9        30.66S WCI -16
SCOBEY           N/A     -2 -12  62 NW7       30.53S WCI -15
$$

MTZ028>42-056>058-081100-
SOUTHCENTRAL AND SOUTHEAST MONTANA

CITY           SKY/WX    TMP DP  RH WIND       PRES   REMARKS
BAKER          CLOUDY    -2  -7  79 W14       30.55S WCI -21
BILLINGS       MOCLDY     0  -6  76 E3        30.51S
LIVINGSTON     CLOUDY     2  -3  80 E7        30.36S WCI -11
MILES CITY     CLEAR     -5 -12  72 W6        30.62F WCI -18
BIG TIMBER     CLOUDY     0  -4  85 E5        30.43S
EKALAKA          N/A     -7 -15  68 SW8       30.41S WCI -23
FORSYTH          N/A     -2  -8  78 W3        30.62F
LAUREL           N/A      1 -10  60 N6        30.43S WCI -10
$$

REGIONAL REPORTS...DAKOTAS

CITY           SKY/WX    TMP DP  RH WIND       PRES   REMARKS
WILLISTON      CLOUDY    -1  -7  75 W6        30.63R WCI -13
MINOT          FLURRIES   4  -1  80 W22G33    30.52R WCI -18
DICKINSON      PTCLDY    -7 -12  79 W13       30.51S WCI -27
BEACH          CLOUDY    -4  -9  77 W13       30.58S WCI -23
CROSBY         CLOUDY     0  -4  85 NW13      30.60S WCI -18
TIOGA          CLOUDY     0  -2  92 W14       30.55S WCI -19
WATFORD CITY   CLOUDY    -4  -9  77 W12       30.61S WCI -22
BISMARCK       MIX PCPN   5   0  79 NW18      30.55R WCI -15
GRAND FORKS    MIX PCPN  17  11  77 NW23G31   30.36R WCI  -1
FARGO          MIX PCPN  18  11  74 NW23G31   30.35R WCI   0
BUFFALO SD       N/A     -3  -8  79 NW13      30.44S WCI -22
RAPID CITY     CLEAR      1  -7  68 N13       30.52R WCI -17
$$

REGIONAL REPORTS...WYOMING/IDAHO/WASHINGTON

CITY           SKY/WX    TMP DP  RH WIND       PRES   REMARKS
GILLETTE       CLOUDY   -10 -14  82 CALM      30.45S
SHERIDAN       CLOUDY    -9 -15  75 CALM      30.48S
BUFFALO WY     CLOUDY    -2 -13  59 S8        30.39S WCI -17
CODY           CLOUDY   -13 -17  82 CALM      30.37F
YELLOWSTONE LA   N/A    -10 -13  86 NW3       30.16S
IDAHO FALLS    CLOUDY     1  -3  83 N6        30.34R WCI -10
SALMON         CLOUDY    -4  -8  84 CALM      30.37S
BOISE          PTCLDY    18  11  74 S10       30.32F WCI   6
SPOKANE        PTCLDY    15   6  67 NE7       30.37S WCI   5
$$

REGIONAL REPORTS...ALBERTA

CITY           SKY/WX    TMP DP  RH WIND       PRES   REMARKS
EDMONTON       CLEAR    -13 -22  64 N6        30.71S WCI -27
CALGARY        PTCLDY   -13 -18  77 VRB2      30.52S
LETHBRIDGE     CLEAR    -18 -24  76 SW9       30.60S WCI -38
MEDICINE HAT   CLEAR    -18 -24  76 SW6       30.68R WCI -33
WATERTON GATE    N/A    -31 -38  68 E1          N/A
CARDSTON         N/A    -22 -29  69 CALM        N/A
MILK RIVER       N/A    -17 -22  76 W7          N/A  WCI -33
ONEFOUR          N/A    -15 -18  84 NW10        N/A  WCI -35
$$

REGIONAL REPORTS...SASKATCHEWAN

CITY           SKY/WX    TMP DP  RH WIND       PRES   REMARKS
SWIFT CURRENT  CLOUDY    -9 -13  84 W8        30.58R WCI -26
REGINA         MOCLDY    -6 -11  77 NW10      30.61R WCI -23
SASKATOON      PTCLDY    -4  -9  77 N6        30.68R WCI -16
CYPRESS HILLS    N/A    -11 -18  70 NW3         N/A
ROCKGLEN         N/A     -8 -11  84 NW6         N/A  WCI -21
$$




USA.gov is the U.S. government's official web portal to all federal, state and local government web resources and services.